TIANMU-1 22

Last updated on Wed Sep 23 2026 00:03:10 GMT+0000 (Coordinated Universal Time)

1 58663U 23208D 26265.61041288 .00005486 00000+0 17864-3 0 9995 2 58663 97.4574 22.3912 0003630 17.8402 342.2967 15.32266585152249
UTC large
Height (km)
Speed (km/s)
/
Latitude / Longitude
Inclination (degrees)
Orbital Period (minutes)
Azimuth
Elevation
Range (km)
Doppler Factor

Next 0 passes for location: London (51.5072 / 0.1276)

No passes found over London.
TIANMU-1 22